Theta_e
321 320 320 320 319 319 319 318 318 318 317 317 317 317 316 316 317 309 302 308 313 321 327 309 311 307 302 297 299 295 286 285 288 290 292 297 294 300 303 301 303 305 322 336 347
320 319 319 318 317 316 317 317 317 316 315 316 316 316 316 316 308 303 313 320 322 324 314 306 304 303 295 294 295 293 286 288 293 294 293 297 295 298 300 300 301 303 309 340 346
319 319 318 317 316 316 316 315 315 315 316 315 315 315 315 314 300 300 322 330 323 323 316 311 307 302 293 292 292 292 289 294 296 297 297 297 295 298 298 296 299 301 304 311 334
317 317 316 316 316 316 315 315 314 315 315 315 316 316 317 308 286 302 334 328 331 319 317 311 305 296 292 291 293 287 293 297 297 299 298 297 298 297 299 299 302 303 305 308 308
316 316 315 315 314 314 314 314 315 315 315 315 315 316 311 298 298 309 320 314 322 317 312 308 300 296 290 292 293 289 292 295 298 298 297 299 298 297 297 301 303 302 303 303 303
316 315 315 315 314 315 315 315 315 315 314 314 314 315 305 292 305 308 308 307 318 315 314 310 303 302 295 292 291 294 294 296 297 294 293 294 296 297 298 302 301 301 301 301 302
314 313 312 312 312 314 315 315 314 314 314 313 313 310 302 297 307 308 307 303 308 316 310 314 309 304 300 295 296 296 292 293 293 293 292 294 293 294 299 301 300 300 301 301 301
312 312 311 311 311 311 312 313 313 312 313 313 313 307 298 308 308 307 308 306 307 307 309 311 310 301 295 297 296 290 289 288 292 293 294 294 289 295 299 300 299 300 301 301 301
311 311 311 310 310 311 312 312 311 312 313 311 308 304 296 312 307 311 310 305 307 308 311 314 306 299 296 293 287 288 283 284 289 294 294 292 289 296 299 299 298 299 299 300 300
311 311 311 310 310 311 311 310 310 310 310 311 311 301 302 301 309 311 311 309 307 306 304 306 299 292 289 288 282 284 284 286 287 292 293 292 291 295 298 297 297 298 298 299 300
310 310 310 310 311 310 307 302 296 296 302 299 300 301 304 309 313 309 312 308 307 303 296 300 294 289 291 290 290 290 288 287 290 294 293 291 291 294 297 296 295 296 297 298 300
310 310 310 310 310 309 305 294 297 300 293 303 302 303 306 307 301 304 309 302 301 295 297 295 292 297 298 295 293 291 288 288 292 295 292 291 291 294 296 296 296 298 298 299 300
310 310 310 310 309 301 296 298 304 299 290 296 301 301 302 305 300 301 305 301 298 294 294 292 295 301 298 296 293 290 288 288 289 294 294 291 289 292 297 297 299 299 299 300 301
309 309 309 309 299 296 294 299 300 300 286 291 298 302 304 305 299 307 307 303 298 294 295 293 298 296 296 295 295 289 294 293 292 291 284 291 281 289 293 295 296 299 298 300 302
309 309 309 308 300 294 297 299 301 298 274 292 303 311 304 299 301 306 308 302 296 295 295 292 293 293 293 295 298 293 298 294 294 292 288 290 283 288 291 293 294 298 300 299 308
308 309 308 301 297 300 301 300 298 284 276 292 302 296 298 301 304 306 303 306 303 296 296 295 299 297 296 299 300 300 298 296 294 290 283 288 286 284 288 293 295 298 299 310 313
308 308 305 304 292 298 298 296 284 279 291 291 293 295 294 297 299 302 300 298 295 291 290 295 295 297 301 295 298 298 292 285 283 282 281 289 285 287 293 297 298 300 304 308 310
307 306 301 303 302 300 297 290 278 285 288 294 293 294 291 296 297 299 295 294 300 296 290 288 285 295 300 297 293 295 294 284 279 277 282 288 283 287 300 304 303 304 306 309 317
305 297 296 300 302 299 293 282 281 289 293 292 293 290 292 295 296 295 295 292 298 299 292 290 289 300 300 301 300 292 291 294 285 291 283 285 289 299 304 303 305 308 310 312 316
297 291 295 303 305 303 294 286 289 296 296 295 288 292 288 292 292 294 294 299 298 302 302 295 289 297 300 300 300 297 297 287 289 281 280 285 290 291 297 299 302 304 305 311 316
291 288 299 307 309 301 289 291 294 297 296 293 292 291 291 290 292 293 294 299 302 300 302 299 293 293 298 294 292 292 292 293 289 285 280 282 285 299 298 300 300 303 305 306 312
293 281 295 302 292 294 289 291 295 294 298 296 297 294 293 292 290 290 291 297 304 303 296 299 294 288 291 298 301 298 292 292 283 283 286 286 288 303 301 302 304 304 308 308 308
291 289 298 300 286 284 291 290 292 293 294 294 293 297 297 292 288 292 294 301 303 301 299 300 291 285 288 294 298 295 295 293 290 290 286 283 286 303 303 302 304 304 306 309 309
292 286 292 291 295 286 285 287 289 295 294 295 294 296 293 291 293 291 292 300 303 302 305 303 292 289 284 289 293 292 296 294 292 283 287 287 295 298 303 303 303 305 306 308 308
291 288 290 281 284 286 286 287 287 288 294 295 292 294 291 288 289 289 293 295 300 303 301 300 290 292 294 297 296 297 296 297 291 292 288 292 295 298 302 305 306 307 309 310 306
286 285 290 288 289 287 286 287 287 288 289 289 289 291 292 289 291 289 291 293 295 300 297 299 291 293 291 295 296 294 297 298 297 296 296 298 296 303 305 306 306 307 308 306 305
293 294 291 287 287 286 287 287 287 290 291 293 291 291 291 295 296 297 297 298 297 295 295 294 291 291 287 293 293 288 293 296 298 300 298 293 298 302 302 303 304 305 308 306 306
Wind_Speed
14 14 12 13 15 17 19 17 18 18 17 18 17 17 18 19 22 9 10 17 15 14 7 2 1 3 2 3 5 5 2 6 7 8 5 1 3 6 4 4 5 7 4 5 19
13 13 13 13 15 17 19 21 20 19 19 18 17 17 17 20 18 11 20 22 21 8 5 10 7 4 1 3 3 5 5 10 7 5 2 1 2 5 6 7 7 8 14 14 16
14 14 13 14 17 16 16 18 19 21 19 17 16 17 17 14 7 9 8 10 19 16 2 4 5 8 4 4 5 5 8 7 4 6 5 6 3 3 6 8 6 3 5 6 7
13 14 16 16 16 16 16 17 19 19 20 20 18 15 16 1 8 2 4 16 8 12 6 4 4 7 7 8 6 4 8 12 2 6 3 4 3 4 7 10 4 4 2 1 6
14 15 14 14 18 17 16 17 19 18 17 16 17 17 8 3 16 9 22 11 8 11 13 7 5 5 6 6 6 6 4 5 9 10 8 9 12 6 11 11 11 7 6 6 6
16 17 17 17 19 19 18 17 17 16 16 16 13 14 4 17 7 7 3 7 1 10 11 10 10 9 4 4 7 5 13 17 15 11 5 7 12 6 5 12 11 9 10 8 8
16 17 19 20 21 21 21 20 19 18 19 18 13 7 12 31 3 4 13 3 1 4 4 11 9 7 7 4 5 10 11 7 8 6 9 4 20 19 10 11 11 11 10 9 9
18 17 19 21 22 23 23 22 23 24 23 19 13 6 13 5 5 13 8 9 10 11 11 7 7 5 4 4 8 4 6 15 5 10 6 10 24 9 9 10 11 10 10 9 11
19 19 20 22 23 25 25 26 29 25 17 9 7 6 13 9 7 11 17 9 8 9 9 7 6 5 3 5 6 5 4 4 3 8 5 12 8 7 10 11 11 9 9 11 11
21 21 21 22 23 23 25 27 21 5 5 8 2 5 8 7 4 3 6 9 4 10 3 8 5 5 5 7 13 6 4 5 6 5 7 12 13 9 8 6 10 10 10 9 10
23 21 22 23 23 23 20 6 4 2 4 9 12 9 8 5 5 3 6 8 4 6 8 7 7 14 8 8 4 7 6 7 2 7 9 9 7 9 9 7 9 10 10 11 13
24 24 24 25 25 25 3 1 5 2 13 20 27 26 25 13 16 27 3 3 7 9 7 4 19 10 8 11 14 14 14 17 3 3 3 5 10 10 9 10 10 14 13 13 8
23 22 23 25 26 4 3 7 3 4 5 11 9 12 9 15 15 21 9 10 7 10 11 13 6 15 12 13 13 13 18 10 4 4 6 4 10 7 12 9 16 11 12 9 12
25 23 21 22 8 4 6 3 3 3 4 9 5 6 5 6 8 10 13 8 7 14 13 12 13 14 15 19 11 15 6 7 4 2 5 3 7 7 8 13 9 17 8 10 8
28 25 22 16 10 5 5 6 7 2 5 3 3 3 5 5 8 5 7 9 9 7 8 9 11 17 20 13 14 9 4 5 5 6 4 7 2 10 3 8 7 8 9 4 4
30 30 24 5 2 11 7 9 0 5 9 6 5 9 8 5 4 1 3 3 6 5 8 10 6 13 23 15 14 11 11 4 6 1 3 16 10 7 4 7 1 2 4 7 5
33 33 23 5 6 3 1 1 5 4 7 1 7 15 12 5 5 2 2 8 7 10 13 4 11 5 8 13 13 11 5 1 3 5 13 4 6 10 5 5 3 4 8 6 6
35 33 4 5 7 3 4 5 4 3 7 14 16 20 6 1 1 2 1 8 16 5 5 10 6 15 8 9 6 12 10 5 6 5 11 3 8 4 7 9 3 6 9 6 7
31 5 5 3 4 3 4 2 5 3 14 16 20 10 3 2 3 3 7 5 8 15 9 5 7 2 8 12 14 5 19 15 1 2 2 3 3 2 13 10 10 15 13 5 7
9 5 5 5 8 1 2 5 4 8 11 10 9 4 7 8 8 4 6 8 7 14 9 7 2 4 4 5 11 15 8 5 4 4 2 4 2 0 6 8 7 14 5 8 7
4 6 3 3 2 2 3 4 5 13 5 4 9 10 9 8 5 6 7 8 6 3 17 4 2 2 3 4 10 7 7 3 5 5 6 3 1 2 1 5 6 7 7 1 10
4 4 2 5 3 2 5 13 13 11 12 14 11 12 12 2 7 6 6 6 4 4 7 12 3 5 11 2 4 10 9 15 6 5 3 5 2 1 3 6 10 8 6 3 10
5 4 5 1 3 3 4 10 7 12 10 6 9 4 6 7 6 10 8 4 6 4 8 7 3 4 2 2 7 5 5 4 4 3 7 7 4 5 4 12 10 6 6 5 12
2 5 5 5 3 3 5 7 6 9 13 11 11 4 6 5 7 7 8 4 1 3 1 4 5 4 7 3 6 9 9 6 7 4 5 6 9 6 6 11 7 7 5 7 7
1 3 3 5 5 10 5 7 8 9 5 10 5 10 17 5 7 9 10 7 3 1 2 1 7 6 4 2 1 4 8 7 5 7 7 9 11 15 17 18 6 4 4 10 8
3 3 3 8 10 7 7 4 6 13 6 10 8 20 16 9 6 11 12 6 3 1 1 2 5 7 6 2 5 4 2 5 2 7 7 11 5 7 9 12 14 6 6 11 12
2 3 4 5 6 7 4 8 17 18 10 8 15 19 14 12 7 14 14 11 12 8 3 2 4 7 6 8 5 8 11 6 4 1 12 6 8 15 16 16 17 14 9 12 9
Wind_Direction
340 342 343 342 342 337 333 333 335 335 333 333 331 329 324 321 310 295 242 225 199 227 195 158 334 196 137 212 181 122 99 227 226 165 233 230 46 306 276 266 301 311 272 267 123
340 339 336 343 338 331 332 331 331 330 328 325 325 325 323 318 303 249 243 242 231 197 172 176 184 152 150 231 226 159 171 224 208 204 281 273 47 338 328 333 309 342 13 74 125
347 345 347 341 331 329 325 322 322 320 319 320 320 319 320 326 309 245 291 230 220 214 180 163 134 154 193 177 215 198 216 239 221 219 242 262 272 242 269 292 247 320 356 28 107
343 342 343 336 327 321 317 312 312 309 310 313 315 317 317 336 287 182 119 16 170 186 244 141 145 149 191 201 219 227 228 231 275 229 256 257 239 265 250 248 235 243 258 207 144
330 323 322 314 316 310 302 300 300 300 298 300 306 309 337 300 253 302 310 341 140 156 190 198 153 151 176 200 231 217 241 233 242 257 259 277 255 244 255 262 275 245 206 225 240
343 340 334 328 319 307 301 296 293 289 290 296 292 300 252 269 246 256 251 358 110 168 182 171 189 196 223 212 184 226 212 235 247 253 244 273 279 200 235 252 266 259 253 235 234
335 333 331 325 319 311 305 295 293 288 289 286 278 265 258 244 231 290 308 272 293 232 184 211 203 182 178 315 228 231 266 275 233 229 244 197 279 246 234 244 240 261 264 266 208
334 331 328 325 321 315 314 306 298 293 289 275 258 237 253 274 260 271 249 253 218 229 239 231 195 208 163 301 343 270 167 244 217 179 223 148 257 293 212 201 232 238 265 266 270
333 329 327 325 323 317 312 307 303 297 289 238 195 204 258 303 248 252 221 227 177 200 214 220 131 190 160 232 326 265 243 210 277 195 206 182 262 254 213 210 231 248 233 258 277
331 328 324 319 318 314 312 312 301 308 124 147 231 200 252 251 214 195 151 185 211 153 179 196 186 180 169 164 215 235 208 207 192 216 202 243 253 258 260 236 241 251 261 246 256
329 325 321 318 318 316 323 338 21 56 244 202 210 229 290 237 268 192 143 134 265 152 169 189 191 216 195 209 250 296 277 247 192 248 195 239 256 252 256 248 244 246 251 258 257
326 325 322 319 318 321 328 170 233 131 289 238 248 248 249 287 286 272 136 205 180 198 147 199 228 201 209 198 213 239 261 262 291 260 213 278 270 259 247 247 222 237 238 241 250
322 323 324 321 317 348 262 237 260 357 269 280 226 246 234 202 238 262 187 199 189 195 186 210 195 195 208 221 213 218 223 239 216 315 280 291 290 287 270 242 243 238 229 242 237
322 324 324 325 332 327 266 266 331 179 343 278 218 254 148 134 213 234 196 205 193 201 206 230 219 245 217 219 208 235 204 223 226 251 235 128 280 281 275 256 220 231 219 234 235
321 322 320 321 286 282 264 349 324 83 335 257 98 76 134 190 287 27 177 205 199 172 159 220 198 219 240 239 224 246 208 226 210 232 264 253 294 261 331 265 241 213 226 209 216
320 318 324 321 216 244 297 337 18 38 258 321 71 10 337 266 298 75 115 283 205 225 220 216 225 205 230 233 233 234 270 337 350 124 249 242 195 280 230 222 202 19 206 173 132
321 320 319 236 227 245 176 45 43 178 324 337 355 341 319 264 300 342 226 291 245 202 230 303 254 233 216 220 227 211 141 115 227 191 234 202 180 226 289 269 173 208 152 126 134
324 319 285 214 224 344 8 58 184 260 272 313 340 326 263 5 258 54 344 234 244 204 145 196 240 198 192 195 182 205 184 178 161 199 232 197 226 236 284 265 128 62 102 99 104
325 332 321 308 125 92 90 90 227 281 338 340 322 295 265 235 256 258 204 205 271 212 180 226 236 215 191 209 187 224 182 200 194 19 132 214 251 188 4 5 102 107 92 71 86
325 334 307 128 143 240 16 234 262 9 329 333 290 226 285 316 294 223 221 207 218 215 185 215 212 218 195 187 201 207 155 204 195 205 182 261 88 40 346 329 348 92 49 131 105
15 4 301 198 285 78 261 306 318 284 268 273 295 299 280 303 320 272 245 277 263 254 201 133 148 185 40 210 187 185 185 122 151 170 175 163 354 272 262 350 37 60 71 105 108
355 346 316 314 63 347 356 319 313 284 314 289 255 252 260 247 258 262 263 253 310 226 182 176 174 208 211 258 270 198 183 178 166 218 212 147 179 127 108 50 50 26 86 82 90
332 285 307 349 68 315 303 296 269 300 314 312 313 329 345 285 287 239 251 220 216 231 181 155 215 133 122 37 279 195 191 163 151 128 186 124 193 211 111 56 45 29 38 57 91
329 329 331 25 335 342 318 291 305 304 303 321 285 265 293 278 260 283 304 309 353 240 175 149 216 193 187 178 172 196 191 171 159 134 178 171 142 194 173 94 57 62 38 45 69
355 314 28 309 323 312 280 272 321 328 286 300 311 321 320 282 286 258 272 268 262 206 102 220 215 167 105 113 62 207 188 151 168 171 159 173 162 181 171 139 122 102 115 98 84
23 344 342 284 282 284 297 275 315 316 323 291 322 316 305 249 245 291 301 307 354 124 339 56 276 151 168 329 102 21 304 143 176 115 84 129 67 128 137 116 135 185 119 110 108
310 280 267 290 285 297 260 313 307 309 295 284 306 304 302 303 293 278 286 261 273 287 223 218 234 134 174 160 129 215 235 194 147 177 136 148 166 146 149 151 163 156 146 122 132